Погода в Костроме

Погода в Костроме : погода сейчас, прогноз погоды и архив. Всё, что Вы хотите узнать о погоде в Костроме!

Хотите узнать прогноз погоды в Костроме? Тогда Вам сюда: Погода в Костроме

Поиск расширенной информации на нашем сайте:

Другие новости

Новости СМИ2

Главная страница сайта

Новости сайта

02.10.2013

Напоминаем, что на нашем новом сайте вы можете получить высокодетализированные прогнозы погоды по пунктам России, СНГ и мира (включающие важные для авиации метеовеличины, такие как направление и скорость ветра, видимость, явления погоды, количество и форма облачности, нижняя и верхняя граница облачности), а также ознакомиться с разнообразными материалами по авиационной метеорологии и подборкой полезных ссылок на эту тему.

Сайт Метеоцентр.Азия посвящён разработке технологий оптимизации авиаметеорологического обслуживания, включая проектирование и перспективное создание нескольких автоматизированных авиаметеорологических систем:
- система выпуска высокодетальных прогностических карт явлений погоды для нижнего воздушного пространства по России и ближнему зарубежью;
- система верификации прогнозов TAF (выпускаемых синоптиками официальных АМСГ РФ и ближнего зарубежья) и AUTOTAF (выпускаемых сайтом Метеоцентр.Азия) - выявление ошибок, онлайн-сопоставление с фактической погодой METAR, автоматическое внесение коррективов в прогнозы при резком отклонении фактической погоды от прогноза, подсчёт оправдываемости прогнозов по элементам и в целом;
- система обработки, анализа и отображения авиаметеорологической информации для применения провайдерами метеорологической информации.

Рекомендуем: шланги, фитинги

Погода в Костроме - сегодня

Время (UTC), дата Ветер
(°,м/с) 
Видим.   Явления Облачность Т
(°С)
Тd
(°С)
f(%) Тe
(°С)
Pmin
(гПа)
dP
(гПа)
Po
(мм)
O2
(г/м3)
Тmin Tmax R s Состояние
почвы
03 26.04.17 170 (Ю) 30000 м    10/0 верхняя 
[Ci]
+2.2 -4.5 61 1016.2  -1  750  300  +0.7        влажная 
06 26.04.17 170 (Ю) 5{10}  30000 м    10/0 средняя 
[Ac As]
+7.5 -2 51 +6  1014.5  -1.4  749  294           
09 26.04.17 180 (Ю) 10-14{18}  30000 м    10/0 средняя 
[Ac As]
+11.6 -2.8 36 +9  1011.6  -2.6  747  289           
12 26.04.17 180 (Ю) 11-18{18}  30000 м  слаб. дождь  10/0 средняя 
[Ac As]
+13.7 -0 39 +12  1008.3  -3.2  745  286           
15 26.04.17 180 (Ю) 4{18}  30000 м  слаб. дождь  10/0 средняя 
[Ac As]
+12.2 +3.7 56 +12  1006.5  -1.8  744  286    +13.8  0.3     
18 26.04.17 240 (ЮЗ) 2{10}  30000 м  слаб. дождь  10/0 средняя 
[Frnb|Ac As]
+7.2 +6 92 +7  1009.7  2.9  746  292           
21 26.04.17 270 (З) 12000 м  слаб. дождь  10/10 300 м 
[Frnb]
+6.3 +4.9 91 +6  1011.4  1.6  747  293           
00 27.04.17 220 (ЮЗ) 50000 м  слаб. дождь  10/10 300 м 
[Frnb]
+4 +2 87 +2  1012.8  1.2  748  297           
03 27.04.17 220 (ЮЗ) 30000 м  {дождь}  10/5 300 м средняя 
[Sc diur, vesp|Ac As]
+3.5 +1.8 89 +1  1013.9  749  298  +3.2    10    влажная 
06 27.04.17 250 (З) 30000 м  {дождь}  10/6 300 м средняя 
[Frnb|Ac trans]
+5.2 +2.6 83 +4  1014.8  749  296           
09 27.04.17 220 (ЮЗ) 30000 м    10/8 300 м средняя 
[Frnb|As op]
+6.9 +2.2 72 +6  1015.3  0.6  750  294           
12 27.04.17 220 (ЮЗ) 30000 м  слаб. дождь  10/8 300 м средняя 
[Frnb|As op]
+5.9 +2.7 80 +5  1015.3  750  295           
15 27.04.17 230 (ЮЗ) 30000 м  слаб. дождь  10/8 300 м средняя 
[Frnb|As trans]
+4.6 +3 89 +4  1015.3  750  297    +7.4     
18 27.04.17 240 (ЮЗ) 50000 м  слаб. дождь  10/8 300 м средняя 
[Frnb|As trans]
+3.6 +2.6 93 +4  1016  0.6  750  298           
21 27.04.17 230 (ЮЗ) 50000 м  в посл. час дождь  10/8 300 м средняя 
[Frnb|As op]
+3.4 +2.6 94 +3  1017.2  1.2  751  299           
00 28.04.17 240 (ЮЗ) 50000 м  слаб. дождь  10/8 300 м средняя 
[Frnb|As trans]
+3.4 +2.6 94 +2  1018.4  1.2  752  299           
03 28.04.17 260 (З) 30000 м  {дождь}  10/8 300 м средняя 
[Frnb|As op]
+3.8 +2.9 94 +3  1019.6  1.2  753  299  +3.3      мокрая 
06 28.04.17 320 (СЗ) 30000 м  {дождь}  10/8 600 м кучево-дожд., средняя 
[Cb calv|Ac As]
+5.3 +2.7 83 +6  1021.6  754  298           
09 28.04.17 060 (СВ) 30000 м    3/3 600 м кучево-дожд., верхняя 
[Cb calv|Ci fib]
+9.8 -2.6 42 +11  1022.2  0.9  755  294           
12 28.04.17 270 (З) 30000 м    10/3 600 м верхняя 
[Cu med, cong|Cc]
+11.4 -3.1 36 +12  1023.1  0.9  756  293           
15 28.04.17 тихо ()   30000 м    10/1 600 м кучево-дожд., верхняя 
[Cb calv|Ci ing]
+10.9 -3 38 +11  1023.6  0.5  756  293    +11.9       
18 28.04.17 210 (ЮЗ) 50000 м    10/0 средняя 
[Ac und]
+8 +0.6 59 +8  1024.2  0.4  756  296           
21 28.04.17 140 (ЮВ) 50000 м    10/0 средняя 
[Ac und]
+6.9 +1.2 67 +7  1024.9  0.6  757  297           
00 29.04.17 150 (ЮВ) 50000 м    10/0 средняя 
[Ac und]
+6.6 +2.4 75 +6  1025  0.2  757  297           
03 29.04.17 100 (В) 30000 м  {дождь}  10/0 средняя 
[Ac As]
+6.3 +2.3 76 +7  1024.2  -0.8  756  298  +6        влажная 
Время (UTC), дата Ветер
(°,м/с) 
Видим.   Явления Облачность Т
(°С)
Тd
(°С)
f(%) Тe
(°С)
Pmin
(гПа)
dP
(гПа)
Po
(мм)
O2
(г/м3)
Тmin Tmax R s Состояние
почвы

Для получения пояснительной информации подведите курсор к названию столбца.

ПОГОДА в Костроме - архив

Всё, что Вы хотите узнать о погоде в Костроме - удобно и подробно!

Выберите нужную дату (начиная с 1 января 2015* года) и нажмите кнопку "Найти".
Будут отображены архивные сводки погоды по пункту Кострома, начиная с указанной даты.


Отображать данные в формате CSV (для использования в таблицах Excel)


Внимание! Наш архив погоды предназначен исключительно для личного некоммерческого использования в познавательных целях. Если Вам необходимы официальные справки о состоянии погоды (для производственных, юридических, коммерческих и т.п. целей), обращайтесь в органы Росгидромета.

*Примечание: данная дата относится к архиву по метеостанциям СССР (Россия, СНГ, Балтия).
Архив по метеостанциям Зарубежной Европы и Азии (кроме Китая) хранится 10 дней, по другим регионам земного шара (Китай, Африка, Америка, Австралия, Океания) - 1 день.

Кострома - район местоположения метеостанции


Название, широта, долгота, высота метеостанции:
Кострома 57.7°ш. 40.8°д. 126 м над ур. моря [Российская Федерация]

Дополнительная информация

В oтличие oт бoльшинства пoгoдных сайтoв мы публикуем пoдрoбную метеoинфoрмацию в детальнoм прoфессиoнальнoм фoрмате.

Характеристики температуры и влажнoсти вoздуха измеряются на высoте 2 м в тени вдали oт зданий и деревьев.
Скoрoсть ветра измеряется на высoте 10 м (на урoвне рoста челoвека скoрoсть ветра ниже в 1.5-2 раза). Если метеoстанция нахoдится в гoрoде или в лесу, тo скoрoсть ветра занижена на 2-4 м/с пo сравнению с oткрытым местoм. Скoрoсть ветра над акватoриями крупных рек и oзёр, а также на вершинах хoлмoв на 2-5 м/с выше, чем в oбычных услoвиях.
Атмoсфернoе давление в разных тoчках местнoсти мoжет значительнo oтличаться oт давления на метеoстанции, в зависимoсти oт услoвий рельефа (при пoдъёме на 10 м давление пoнижается примернo на 1 мм рт.ст.).